Weather reports worldwide

Advertisment
Ajaccio, France (7761): temperature & dewpoint: 10.08.2018 18:00:00 - 16.08.2018 18:00:00 (CEST)Ajaccio, France (7761): temperature 5cm: 10.08.2018 18:00:00 - 16.08.2018 18:00:00 (CEST)Ajaccio, France (7761): temperature -20cm & temperature -100cm: 10.08.2018 18:00:00 - 16.08.2018 18:00:00 (CEST)Ajaccio, France (7761): wind speed & gusts: 10.08.2018 18:00:00 - 16.08.2018 18:00:00 (CEST)Ajaccio, France (7761): wind direction: 10.08.2018 18:00:00 - 16.08.2018 18:00:00 (CEST)Ajaccio, France (7761): reduced air pressure: 10.08.2018 18:00:00 - 16.08.2018 18:00:00 (CEST)Ajaccio, France (7761): visibility: 10.08.2018 18:00:00 - 16.08.2018 18:00:00 (CEST)Ajaccio, France (7761): sunshine duration: 10.08.2018 18:00:00 - 16.08.2018 18:00:00 (CEST)Ajaccio, France (7761): precipitation: 10.08.2018 18:00:00 - 16.08.2018 18:00:00 (CEST)
Date & Time tt [°C] td [°C] tt 5cm [°C] tt -20cm [°C] tt -100cm [°C] ff [km/h] ff [kn] fx [km/h] fx [kn] dd ppp [hPa] vv [km] sd [min] rr [mm]
16.08.2018 18:00:00 25,9 16,4 26,2 31,6 29,3 9 5 45 24 ESE 1014,4 59 6 0,0
16.08.2018 17:00:00 30,1 21,5 34,9 31,2 29,3 16 9 26 14 SSW 1014,0 20 60 0,0
16.08.2018 16:00:00 29,6 21,5 35,3 30,8 29,3 18 10 24 13 SW 1013,8 58 60 0,0
16.08.2018 15:00:00 29,7 21,9 37,5 30,4 29,3 16 9 29 16 SW 1014,2 54 60 0,0
16.08.2018 14:00:00 29,6 21,5 38,5 30,1 29,3 18 10 26 14 SW 1014,4 60 60 0,0
16.08.2018 13:00:00 29,5 20,9 38,3 30,0 29,3 17 9 23 12 SW 1014,6 60 60 0,0
16.08.2018 12:00:00 29,1 20,3 37,8 29,9 29,3 14 8 18 10 SW 1014,8 60 60 0,0
16.08.2018 11:00:00 28,4 18,8 35,3 30,0 29,3 10 5 19 10 WSW 1014,9 60 60 0,0
16.08.2018 10:00:00 28,1 17,6 30,5 30,2 29,4 6 3 10 5 SW 1014,7 60 60 0,0
16.08.2018 09:00:00 25,3 17,0 24,4 30,4 29,4 5 3 14 7 NE 1014,8 43 60 0,0
16.08.2018 08:00:00 21,9 16,8 19,2 30,5 29,4 9 5 19 10 NE 1014,9 47 60 0,0
16.08.2018 07:00:00 19,7 16,5 19,1 30,8 29,4 11 6 19 10 NE 1014,9 60 2 0,0
16.08.2018 06:00:00 20,1 16,3 19,3 31,0 29,4 11 6 16 9 NE 1014,9 60 0 0,0
16.08.2018 05:00:00 20,2 16,6 19,5 31,1 29,4 11 6 15 8 NE 1015,0 60 0 0,0
16.08.2018 04:00:00 20,5 16,7 19,8 31,4 29,4 10 6 14 7 NE 1015,1 60 0 0,0
16.08.2018 03:00:00 21,0 17,2 20,3 31,5 29,4 9 5 16 9 NE 1015,4 60 0 0,0
16.08.2018 02:00:00 21,6 17,8 21,0 31,7 29,5 8 4 14 7 ENE 1015,5 60 0 0,0
16.08.2018 01:00:00 22,0 18,2 21,2 31,8 29,5 9 5 15 8 NE 1015,4 59 0 0,0
16.08.2018 00:00:00 23,1 18,6 22,3 31,9 29,5 10 5 15 8 NE 1015,2 59 0 0,0
15.08.2018 23:00:00 24,7 19,3 23,5 31,9 29,5 10 6 16 9 NNE 1014,8 60 0 0,0
15.08.2018 22:00:00 26,1 18,5 25,0 31,9 29,5 5 3 16 9 NNE 1014,4 60 0 0,0
15.08.2018 21:00:00 26,7 18,0 26,0 31,8 29,5 10 6 26 14 SSW 1013,9 60 2 0,0
15.08.2018 20:00:00 27,9 17,7 28,3 31,5 29,5 14 7 25 14 S 1013,3 60 60 0,0
15.08.2018 19:00:00 29,2 19,5 32,2 31,2 29,5 19 10 35 19 SSW 1012,7 60 58 0,0
15.08.2018 18:00:00 30,8 17,5 34,3 30,8 29,5 16 9 28 15 SW 1012,4 57 58 0,0
15.08.2018 17:00:00 31,4 18,0 34,9 30,4 29,5 16 8 23 12 SSW 1012,5 60 60 0,0
15.08.2018 16:00:00 31,2 18,9 35,5 29,9 29,5 16 9 21 12 SW 1012,6 20 60 0,0
15.08.2018 15:00:00 30,2 18,0 37,0 29,5 29,5 16 9 21 11 SSW 1012,9 60 60 0,0
15.08.2018 14:00:00 29,4 19,7 38,3 29,3 29,5 15 8 21 11 SW 1013,3 60 60 0,0
15.08.2018 13:00:00 28,4 20,2 37,4 29,2 29,5 15 8 21 12 SW 1013,5 60 60 0,0
15.08.2018 12:00:00 28,2 17,4 37,3 29,2 29,6 13 7 19 10 SW 1013,8 60 60 0,0
15.08.2018 11:00:00 27,0 16,6 31,6 29,3 29,5 8 4 11 6 WSW 1013,9 60 60 0,0
15.08.2018 10:00:00 24,5 15,7 19,6 29,4 29,5 5 3 15 8 NE 1013,5 60 46 0,0
15.08.2018 09:00:00 19,7 15,6 19,0 29,7 29,6 9 5 18 10 NE 1013,8 60 0 0,0
15.08.2018 08:00:00 19,1 15,0 18,2 29,9 29,6 8 4 18 10 NE 1013,5 60 5 0,0
15.08.2018 07:00:00 18,6 14,7 17,6 30,1 29,6 13 7 18 10 NNE 1013,4 60 0 0,0
15.08.2018 06:00:00 18,5 14,8 17,5 30,3 29,5 10 5 18 10 NE 1012,6 60 0 0,0
15.08.2018 05:00:00 19,1 15,2 18,2 30,5 29,6 8 5 20 11 NE 1012,8 60 0 0,0
15.08.2018 04:00:00 19,6 15,5 18,3 30,7 29,6 13 7 20 11 NNE 1012,9 60 0 0,0
15.08.2018 03:00:00 19,9 15,7 18,8 30,9 29,6 14 8 23 12 NNE 1012,8 60 0 0,0
15.08.2018 02:00:00 20,8 15,8 19,3 31,1 29,6 11 6 22 12 NNE 1013,0 60 0 0,0
15.08.2018 01:00:00 20,9 16,7 20,0 31,3 29,6 8 4 16 8 NE 1013,3 60 0 0,0
15.08.2018 00:00:00 21,7 17,1 20,7 31,4 29,6 10 5 14 8 NE 1013,1 60 0 0,0
14.08.2018 23:00:00 22,4 17,5 21,2 31,5 29,6 9 5 14 8 NE 1012,9 59 0 0,0
14.08.2018 22:00:00 22,6 17,7 21,6 31,6 29,6 8 4 9 5 ENE 1012,9 52 0 0,0
14.08.2018 21:00:00 24,0 17,5 22,5 31,7 29,6 2 1 24 13 E 1012,7 59 0 0,0
14.08.2018 20:00:00 25,4 17,6 24,9 31,7 29,6 15 8 24 13 W 1013,2 60 27 0,0
14.08.2018 19:00:00 27,3 17,8 27,7 31,6 29,6 16 9 26 14 W 1012,5 50 48 0,0
14.08.2018 18:00:00 27,8 17,6 28,1 31,4 29,6 14 8 26 14 NW 1012,8 55 18 0,0
14.08.2018 17:00:00 27,7 18,7 29,7 31,2 29,6 19 10 31 17 WSW 1013,0 60 3 0,0
14.08.2018 16:00:00 27,8 20,1 30,7 31,1 29,6 21 11 32 17 SW 1012,8 59 27 0,0
14.08.2018 15:00:00 29,3 20,2 35,3 30,8 29,6 21 11 32 17 SW 1012,6 50 60 0,0
14.08.2018 14:00:00 29,6 19,9 36,8 30,7 29,6 22 12 30 16 SW 1012,7 50 60 0,0
14.08.2018 13:00:00 28,5 20,5 30,3 30,7 29,6 15 8 20 11 SW 1013,1 20 39 0,0
14.08.2018 12:00:00 26,7 19,6 28,4 30,7 29,6 7 4 11 6 S 1013,4 35 15 0,0
14.08.2018 11:00:00 26,3 18,2 30,1 30,8 29,6 3 2 9 5 SSW 1013,7 56 27 0,0
14.08.2018 10:00:00 24,9 18,6 26,5 30,9 29,6 4 2 10 5 NNE 1013,6 59 47 0,0
14.08.2018 09:00:00 22,3 18,1 18,7 31,0 29,6 6 4 19 10 NNE 1013,4 44 52 0,0
14.08.2018 08:00:00 19,5 17,8 18,3 31,1 29,6 8 4 16 9 ENE 1013,5 29 0 1,4
14.08.2018 07:00:00 20,1 18,4 17,6 31,5 29,6 9 5 23 12 NW 1013,7 1,8 0 3,4
14.08.2018 06:00:00 19,5 17,5 17,9 31,7 29,6 9 5 21 11 E 1012,9 12 0 11,3
14.08.2018 05:00:00 20,4 14,5 19,7 32,9 29,6 12 7 21 12 NE 1011,8 13 0 0,0
14.08.2018 04:00:00 20,2 14,8 19,6 33,1 29,6 12 7 17 9 NE 1012,8 56 0 0,0
14.08.2018 03:00:00 20,4 15,2 19,6 33,3 29,6 12 7 16 8 NE 1013,0 56 0 0,0
14.08.2018 02:00:00 21,2 15,5 20,1 33,4 29,6 9 5 13 7 NE 1013,1 57 0 0,0
14.08.2018 01:00:00 22,2 15,5 21,0 33,6 29,6 8 4 12 7 NE 1013,3 57 0 0,0
14.08.2018 00:00:00 23,2 15,8 22,4 33,6 29,6 9 5 13 7 ENE 1013,2 60 0 0,0
13.08.2018 23:00:00 24,0 15,8 22,9 33,7 29,6 9 5 13 7 ENE 1013,2 60 0 0,0
13.08.2018 22:00:00 25,2 15,2 24,3 33,6 29,6 8 4 11 6 ENE 1012,9 60 0 0,0
13.08.2018 21:00:00 27,3 15,0 26,5 33,5 29,6 2 1 13 7 SSE 1012,6 60 0 0,0
13.08.2018 20:00:00 28,3 17,2 28,5 33,4 29,6 9 5 14 8 S 1012,3 60 10 0,0
13.08.2018 19:00:00 30,0 17,8 30,9 33,1 29,6 10 5 16 9 S 1012,2 60 28 0,0
13.08.2018 18:00:00 30,4 17,1 32,4 32,8 29,6 9 5 36 20 S 1012,4 60 26 0,0
13.08.2018 17:00:00 29,7 20,8 32,2 32,5 29,6 13 7 24 13 SW 1012,6 56 3 0,0
13.08.2018 16:00:00 30,7 20,9 35,8 32,2 29,6 16 8 22 12 SW 1012,4 40 42 0,0
13.08.2018 15:00:00 30,7 19,1 37,0 32,0 29,6 13 7 18 10 WSW 1012,9 53 54 0,0
13.08.2018 14:00:00 31,2 17,9 34,8 31,9 29,6 11 6 26 14 W 1013,9 60 60 0,0
13.08.2018 13:00:00 30,0 19,7 33,4 31,8 29,6 19 11 40 22 NW 1014,8 60 57 0,0
13.08.2018 12:00:00 29,6 19,3 38,8 31,9 29,6 15 8 20 11 WSW 1015,4 60 60 0,0
13.08.2018 11:00:00 28,3 19,0 35,7 32,0 29,6 10 5 16 9 SW 1015,1 60 60 0,0
13.08.2018 10:00:00 27,2 17,1 31,7 32,2 29,6 9 5 13 7 S 1014,7 60 60 0,2
13.08.2018 09:00:00 25,9 12,7 24,7 32,4 29,6 2 1 11 6 N 1014,4 56 60 0,0
13.08.2018 08:00:00 21,8 15,2 19,8 32,6 29,6 8 4 16 8 NE 1014,3 48 60 0,0
13.08.2018 07:00:00 19,8 14,8 18,7 32,8 29,6 13 7 18 10 NE 1014,3 60 4 0,0
13.08.2018 06:00:00 20,0 15,2 18,7 33,0 29,6 9 5 12 7 NE 1014,2 60 0 0,0
13.08.2018 05:00:00 19,9 16,5 19,1 33,2 29,6 9 5 13 7 NE 1014,5 53 0 0,0
13.08.2018 04:00:00 20,5 16,7 19,7 33,4 29,6 10 5 15 8 NE 1014,5 52 0 0,0
13.08.2018 03:00:00 20,6 17,2 19,9 33,6 29,6 10 5 13 7 NE 1014,7 45 0 0,0
13.08.2018 02:00:00 21,3 17,7 20,4 33,7 29,6 9 5 12 6 ENE 1015,2 47 0 0,0
13.08.2018 01:00:00 21,9 18,1 21,0 33,9 29,6 8 4 12 7 ENE 1015,8 47 0 0,0
13.08.2018 00:00:00 23,1 18,4 22,3 33,9 29,6 8 4 12 6 ENE 1016,0 52 0 0,0
12.08.2018 23:00:00 24,0 18,9 23,1 33,9 29,5 8 4 11 6 NE 1016,2 52 0 0,0
12.08.2018 22:00:00 25,1 20,1 24,1 33,9 29,6 6 4 13 7 ENE 1015,9 53 0 0,0
12.08.2018 21:00:00 26,3 19,7 25,6 33,7 29,6 7 4 17 9 SSE 1015,7 60 4 0,0
12.08.2018 20:00:00 27,7 21,0 28,2 33,5 29,5 14 7 19 10 S 1015,5 57 60 0,0
12.08.2018 19:00:00 29,1 20,8 32,3 33,2 29,6 14 8 21 11 SSW 1015,4 41 60 0,0
12.08.2018 18:00:00 30,1 20,4 32,8 32,9 29,5 15 8 23 13 SW 1015,9 60 60 0,0
12.08.2018 17:00:00 30,1 21,7 33,8 32,5 29,5 17 9 24 13 SSW 1016,3 60 60 0,0
12.08.2018 16:00:00 30,5 20,1 35,3 32,2 29,5 19 10 27 14 SW 1016,9 60 60 0,0
12.08.2018 15:00:00 30,3 20,5 38,7 32,0 29,5 20 11 26 14 SW 1017,3 56 60 0,0
12.08.2018 14:00:00 29,6 19,9 38,8 31,9 29,5 19 11 28 15 SW 1017,8 20 60 0,0
12.08.2018 13:00:00 29,4 19,4 38,8 31,8 29,5 17 9 36 19 SW 1017,9 60 60 0,0
12.08.2018 12:00:00 28,6 18,4 38,1 31,9 29,5 14 8 19 10 WSW 1018,1 60 60 0,0
12.08.2018 11:00:00 27,9 18,9 35,4 32,0 29,5 10 5 15 8 WSW 1018,2 60 60 0,0
12.08.2018 10:00:00 27,1 16,1 31,2 32,2 29,5 8 4 11 6 WSW 1018,3 60 60 0,0
12.08.2018 09:00:00 25,4 15,1 23,9 32,4 29,5 8 4 13 7 NNE 1018,2 60 60 0,0
12.08.2018 08:00:00 20,9 14,3 17,9 32,7 29,5 10 5 16 9 NE 1018,3 59 60 0,0
12.08.2018 07:00:00 18,2 13,7 16,9 32,9 29,5 10 5 16 8 NE 1018,1 55 6 0,0
12.08.2018 06:00:00 18,4 14,1 17,4 33,2 29,5 11 6 14 8 NE 1017,7 59 0 0,0
12.08.2018 05:00:00 19,6 14,2 18,2 33,4 29,5 8 5 14 8 NE 1017,7 60 0 0,0
12.08.2018 04:00:00 20,0 14,4 18,9 33,6 29,5 10 5 16 9 NE 1017,7 60 0 0,0
12.08.2018 03:00:00 20,2 14,6 19,1 33,8 29,5 11 6 20 11 NNE 1018,0 60 0 0,0
12.08.2018 02:00:00 20,5 15,1 19,7 34,0 29,5 11 6 16 9 NE 1018,6 60 0 0,0
12.08.2018 01:00:00 21,2 15,5 20,2 34,2 29,5 10 6 17 9 ENE 1019,1 60 0 0,0
12.08.2018 00:00:00 22,6 15,7 21,4 34,3 29,5 7 4 13 7 ENE 1019,2 60 0 0,0
11.08.2018 23:00:00 23,8 15,8 23,0 34,3 29,5 11 6 16 9 NNE 1019,1 60 0 0,0
11.08.2018 22:00:00 24,9 17,1 23,9 34,2 29,5 8 4 13 7 ENE 1018,9 60 0 0,0
11.08.2018 21:00:00 26,6 16,2 24,8 34,1 29,5 2 1 17 9 E 1018,6 60 5 0,0
11.08.2018 20:00:00 28,7 14,5 29,2 33,9 29,5 12 6 23 12 W 1018,2 60 60 0,0
11.08.2018 19:00:00 29,3 18,4 32,3 33,6 29,5 18 10 31 17 WSW 1018,3 60 60 0,0
11.08.2018 18:00:00 30,4 18,2 32,2 33,2 29,5 16 9 27 15 WSW 1018,6 54 60 0,0
11.08.2018 17:00:00 32,2 13,9 35,0 32,9 29,4 13 7 29 16 W 1018,9 60 60 0,0
11.08.2018 16:00:00 32,1 19,0 35,7 32,6 29,5 15 8 36 19 WSW 1019,4 60 60 0,0
11.08.2018 15:00:00 33,2 10,5 37,7 32,3 29,4 18 10 31 17 NW 1019,5 59 60 0,0
11.08.2018 14:00:00 32,0 18,2 39,4 32,2 29,4 19 11 32 17 SW 1019,6 20 60 0,0
11.08.2018 13:00:00 30,8 20,7 38,9 32,2 29,5 20 11 41 22 SW 1020,1 60 60 0,0
11.08.2018 12:00:00 29,9 21,0 39,3 32,2 29,5 13 7 22 12 SW 1020,4 60 60 0,0
11.08.2018 11:00:00 29,2 20,4 37,3 32,4 29,4 13 7 19 10 SW 1020,5 60 60 0,0
11.08.2018 10:00:00 28,8 19,1 31,8 32,6 29,4 7 4 11 6 WSW 1020,3 53 60 0,0
11.08.2018 09:00:00 26,0 18,2 25,3 32,8 29,4 7 4 12 6 NE 1020,5 35 60 0,0
11.08.2018 08:00:00 22,4 17,1 20,3 33,0 29,4 9 5 16 9 NNE 1020,7 28 60 0,0
11.08.2018 07:00:00 20,3 17,1 19,4 33,2 29,4 11 6 15 8 NE 1020,7 24 3 0,0
11.08.2018 06:00:00 20,7 16,9 19,8 33,4 29,4 9 5 15 8 NE 1020,3 23 0 0,0
11.08.2018 05:00:00 20,9 17,3 20,1 33,7 29,4 11 6 18 10 NE 1020,2 25 0 0,0
11.08.2018 04:00:00 21,5 17,7 20,7 33,8 29,4 9 5 16 9 NE 1020,6 24 0 0,0
11.08.2018 03:00:00 21,5 17,9 20,9 34,0 29,4 11 6 14 8 NE 1021,0 22 0 0,0
11.08.2018 02:00:00 22,1 18,7 21,3 34,2 29,4 9 5 12 7 NE 1021,2 21 0 0,0
11.08.2018 01:00:00 23,3 19,0 22,4 34,3 29,4 7 4 11 6 NE 1021,4 23 0 0,0
11.08.2018 00:00:00 24,1 19,4 23,4 34,4 29,4 8 5 14 8 NE 1021,4 27 0 0,0
10.08.2018 23:00:00 24,8 20,5 24,1 34,4 29,3 8 4 13 7 ENE 1021,1 31 0 0,0
10.08.2018 22:00:00 25,9 20,5 25,3 34,3 29,3 6 3 9 5 E 1021,0 36 0 0,0
10.08.2018 21:00:00 27,2 21,7 26,5 34,2 29,4 7 4 15 8 SSE 1020,6 38 2 0,0
10.08.2018 20:00:00 28,9 22,2 29,2 34,0 29,3 8 4 18 10 SSE 1020,2 43 60 0,0
10.08.2018 19:00:00 30,9 18,6 32,6 33,7 29,4 6 4 32 17 SSW 1020,3 40 60 0,0
10.08.2018 18:00:00 31,6 19,3 33,6 33,5 29,3 13 7 27 15 WNW 1020,1 53 60 0,0

tt = temperature
td = dewpoint
tt 5cm = temperature 5cm
tt -20cm = temperature -20cm
tt -100cm = temperature -100cm
ff = wind speed
fx = gusts
dd = wind direction
ppp = reduced air pressure
vv = visibility
sd = sunshine duration
rr = precipitation

Next stations